GFSMA_sfc_wetblb_159.txt.gz
Wetbulb
68.95 68.51 68.27 68.32 69.25 70.24 69.87 67.83 66.35 64.79 63.76 63.90 63.90 64.02 64.03 64.34 64.42 64.02 65.30 67.02 67.89 68.00 67.98 68.00 67.50 66.93 66.24 65.82 65.54 65.55 65.21 64.99 64.86 64.71 64.50 64.32 64.06 63.89 63.67 63.72 64.05 64.32 64.69
67.82 67.71 66.79 67.10 67.97 68.37 67.90 64.96 65.04 62.87 63.02 63.41 62.85 63.42 63.58 63.89 63.43 64.02 64.93 66.25 67.70 67.95 67.50 67.45 67.04 66.41 65.42 65.43 65.34 64.95 64.67 64.38 64.21 64.02 63.80 63.64 63.52 63.29 63.02 62.83 62.92 63.04 63.28
67.12 67.19 66.98 66.50 67.72 67.56 67.10 65.13 63.48 60.70 59.90 62.03 62.14 62.75 63.22 63.47 62.48 62.91 64.83 66.13 66.37 66.80 66.80 66.26 65.72 65.62 65.30 65.13 64.98 64.50 64.24 63.96 63.77 63.50 63.19 63.01 62.87 62.66 62.39 62.20 62.09 62.08 62.27
65.65 65.78 65.26 64.85 65.66 65.28 65.56 64.59 61.33 59.73 59.54 59.09 59.56 60.65 62.51 63.01 61.56 62.31 62.64 63.30 64.28 64.93 65.58 66.08 65.46 65.04 64.93 64.70 64.58 64.22 63.87 63.71 63.42 63.06 62.78 62.49 62.12 61.91 61.69 61.46 61.32 61.15 61.24
63.95 63.18 64.41 64.93 64.98 63.93 64.31 63.36 61.33 60.82 58.45 57.62 57.40 59.42 61.32 62.01 61.07 61.35 61.13 61.70 62.34 63.58 64.34 65.13 65.30 64.75 64.21 64.19 64.21 63.88 63.50 63.12 62.80 62.42 62.21 61.87 61.53 61.15 60.90 60.77 60.47 60.35 60.19
64.72 62.66 63.31 64.13 63.69 63.40 62.36 62.56 60.35 59.92 58.61 58.20 57.89 57.26 59.83 60.71 59.75 59.93 60.20 61.77 63.01 63.57 63.68 63.54 63.50 63.12 63.98 63.42 63.33 63.41 63.06 62.59 62.15 61.78 61.55 61.22 60.91 60.57 60.27 60.05 59.92 59.62 59.25
64.42 63.38 62.40 63.01 63.74 62.13 62.31 61.52 60.09 58.26 57.88 57.14 55.98 56.72 57.14 57.06 58.20 58.67 60.56 62.15 61.87 62.10 62.41 62.88 62.88 63.01 63.18 63.33 62.88 62.62 62.70 62.13 61.53 61.04 60.72 60.36 60.04 59.69 59.45 59.18 59.07 58.98 58.62
64.14 63.00 62.37 62.14 61.94 62.32 60.48 60.77 60.03 58.83 58.47 58.31 56.13 55.77 53.98 55.13 56.14 58.47 60.13 60.38 60.59 61.06 61.06 61.21 61.88 61.96 62.02 62.43 62.54 61.67 61.48 60.60 60.15 59.53 59.28 59.28 59.20 58.88 58.49 58.42 58.32 58.33 57.99
63.18 62.84 62.53 62.31 61.65 61.82 59.90 60.15 60.00 59.45 56.64 58.04 57.89 55.98 52.79 50.97 54.45 55.27 57.37 58.98 59.06 59.56 59.79 60.08 60.28 59.94 60.25 60.68 60.03 59.88 60.60 59.37 58.41 58.07 57.66 57.38 57.49 57.61 57.30 57.27 57.34 57.32 57.28
62.20 62.63 61.32 60.89 60.84 61.98 61.16 60.23 60.87 60.08 59.20 56.20 57.43 55.23 55.92 56.53 52.63 51.65 54.91 55.76 57.29 57.61 58.37 58.55 58.63 58.07 58.22 59.32 56.76 57.19 58.57 58.17 57.17 56.38 56.04 55.97 55.85 55.85 56.17 56.26 56.39 56.31 56.39
61.88 62.53 62.05 61.83 62.28 61.89 61.62 60.42 59.97 59.47 58.69 57.53 56.61 52.51 54.50 54.08 55.33 53.75 51.18 52.79 54.11 55.34 56.12 56.58 56.85 56.77 56.36 56.04 56.22 54.72 56.38 55.79 55.26 54.59 54.19 54.50 54.82 55.17 55.58 55.71 55.76 55.52 55.32
62.01 61.82 62.27 62.51 62.92 62.63 62.08 61.31 60.44 59.85 58.80 58.38 57.78 55.21 54.96 54.53 52.70 53.19 51.95 52.44 53.54 51.92 52.99 53.30 54.14 54.82 55.15 55.24 53.25 53.07 55.32 55.14 54.59 54.03 53.54 53.84 54.87 55.46 55.11 54.70 54.49 54.22 54.05
58.95 60.62 61.39 61.28 63.13 63.17 62.61 62.20 60.83 59.51 58.82 58.13 57.54 54.95 55.51 54.94 54.47 53.10 53.96 51.14 51.79 51.03 51.75 52.34 52.76 52.98 53.43 54.45 54.91 54.86 56.44 55.06 54.39 54.54 54.43 54.99 54.20 53.50 52.81 52.63 52.68 52.46 52.36
59.95 60.43 59.63 61.06 61.58 62.08 61.90 61.44 59.77 59.21 58.69 58.48 57.25 54.77 56.00 55.46 54.09 55.22 53.17 50.50 48.53 50.23 50.15 51.53 50.37 50.49 51.22 52.69 53.32 53.79 55.02 55.19 55.12 55.21 55.03 53.38 52.08 50.63 50.50 50.74 50.85 50.88 50.60
58.08 59.07 59.83 59.48 60.39 61.86 61.17 60.91 59.73 58.40 58.33 58.27 56.88 54.30 52.80 51.60 53.30 53.41 53.11 53.68 52.14 49.00 49.85 50.03 49.69 48.62 50.46 51.38 54.01 54.46 55.06 55.12 54.81 53.85 52.37 50.91 49.48 48.90 49.15 49.61 49.71 49.52 49.40
57.80 58.00 58.48 58.70 60.54 60.52 60.59 60.18 59.29 58.05 56.67 54.79 53.89 52.52 51.41 51.09 50.70 51.13 52.59 52.75 52.61 52.36 50.33 50.26 48.89 47.81 48.97 48.39 52.96 52.35 51.80 51.99 52.00 50.42 49.19 48.52 47.73 47.96 47.78 47.85 47.57 47.75 47.58
55.75 56.15 57.11 57.73 58.95 58.47 59.23 59.22 58.06 57.25 54.95 53.39 53.08 52.15 51.02 51.62 50.90 50.82 50.32 51.15 51.25 51.70 49.27 45.49 47.07 44.59 45.04 48.13 45.80 47.03 46.17 45.90 48.41 49.83 48.50 48.31 47.43 47.06 46.84 46.67 46.88 46.90 47.04
53.84 54.29 55.69 57.11 58.02 57.19 57.95 56.88 55.79 55.10 53.61 52.88 52.29 51.86 50.65 51.44 50.31 50.91 51.51 51.69 51.04 50.26 48.36 44.75 43.64 43.14 43.15 44.22 44.07 42.86 42.98 42.88 44.07 46.89 47.40 47.69 47.66 47.08 46.57 47.02 46.79 46.92 45.76
53.19 53.53 54.81 55.59 55.73 55.56 55.24 55.03 54.41 53.99 53.49 53.09 52.52 51.43 50.39 50.35 49.84 49.80 49.90 48.95 48.79 48.81 48.61 46.96 42.92 43.36 43.26 43.01 41.26 41.17 41.27 42.12 43.18 45.41 46.54 47.76 46.87 47.43 46.99 45.83 46.25 45.40 44.21
52.56 52.57 53.12 53.80 53.67 53.43 53.29 53.21 52.57 51.76 51.68 51.56 51.28 51.04 50.92 50.65 49.88 49.49 48.70 47.57 47.14 46.16 45.75 44.23 42.02 41.44 41.91 40.53 41.25 39.29 38.90 41.24 39.77 41.37 43.19 44.68 46.01 46.23 46.35 45.93 45.52 44.21 43.62
51.71 52.39 52.22 52.29 52.43 52.39 52.30 51.63 51.71 51.06 50.57 50.00 50.24 50.39 50.41 51.43 51.89 50.16 47.14 45.48 45.14 43.72 43.10 41.87 40.24 39.68 39.35 40.18 40.38 39.91 39.22 39.87 40.84 41.99 42.45 42.07 42.62 42.49 42.09 41.05 42.13 43.52 43.47
50.41 51.78 52.12 52.49 52.16 52.77 53.69 52.58 50.70 49.20 48.93 48.76 49.03 50.15 50.85 51.16 50.69 50.13 48.60 46.79 44.26 41.90 41.11 41.77 39.82 39.12 37.44 38.93 39.87 40.38 40.05 39.31 38.38 40.59 40.31 40.81 40.47 40.92 41.32 42.34 41.76 43.59 42.75
48.99 49.88 51.35 52.04 52.27 52.84 53.74 52.67 50.75 48.48 48.03 47.75 47.08 46.96 46.99 47.23 46.42 46.73 48.70 48.17 47.09 46.05 44.03 42.61 40.29 39.30 38.59 38.77 39.44 38.98 39.10 38.92 38.81 39.22 38.81 38.29 39.61 39.23 40.85 41.53 42.89 41.90 40.97
46.70 47.29 48.28 49.42 50.10 51.53 52.35 50.80 48.62 44.67 43.74 43.67 43.81 43.81 44.38 44.90 44.81 42.42 41.64 40.67 40.80 41.32 41.48 40.81 40.79 40.13 40.15 39.68 39.41 39.01 38.47 38.01 38.62 39.00 38.66 36.54 38.83 38.66 39.66 40.21 38.95 40.04 39.55
45.68 46.07 47.14 47.28 47.82 48.04 49.51 47.96 45.45 44.85 44.69 44.61 44.98 45.06 44.74 44.73 44.94 43.41 41.58 41.02 41.28 41.79 44.12 43.80 43.36 43.41 42.63 40.96 39.53 39.30 37.09 37.22 36.23 37.53 37.61 36.83 38.08 36.72 37.89 38.50 39.82 39.41 39.49
44.00 45.37 45.56 47.10 47.95 46.92 47.60 46.59 44.97 44.26 43.20 43.34 44.97 45.49 45.92 45.28 45.06 42.89 41.77 41.50 40.53 40.94 41.11 40.92 41.44 41.15 41.60 41.73 40.25 38.62 37.75 35.26 34.93 35.10 38.22 36.04 36.88 36.49 34.84 38.66 39.31 39.47 39.30

GFSMA_sfc_wetblb_165.txt.gz
Wetbulb
71.49 71.51 71.08 70.87 71.29 71.42 71.16 70.86 70.14 69.92 67.86 66.00 65.49 65.04 65.00 65.13 65.14 64.74 65.52 67.80 68.80 68.43 68.20 67.93 67.15 66.06 65.95 65.68 65.65 65.48 65.11 65.25 65.16 64.94 64.80 64.61 64.47 64.36 64.43 64.74 64.71 64.77 64.87
70.41 69.60 70.51 70.44 70.99 72.11 71.09 71.08 70.75 68.56 66.36 65.55 64.91 64.59 64.47 64.96 64.63 64.36 64.63 66.77 67.68 68.03 67.68 67.44 66.77 65.90 65.65 65.34 65.38 64.85 64.79 64.55 64.48 64.24 64.00 63.95 63.82 63.61 63.39 63.12 63.45 63.80 64.02
70.00 69.74 67.84 68.49 69.76 70.88 70.07 70.47 69.14 67.82 65.52 64.69 64.10 62.81 62.60 63.47 63.73 63.54 65.08 65.70 66.23 66.65 67.51 66.49 66.19 65.81 65.10 65.84 65.29 64.46 64.24 64.01 63.59 63.42 63.18 63.02 62.88 62.88 62.63 62.57 62.71 62.65 62.50
69.92 69.04 68.45 68.29 69.40 69.59 69.15 68.56 67.20 66.29 64.64 63.74 63.47 62.75 62.23 63.12 63.08 63.05 65.52 65.60 65.80 64.89 65.76 66.52 65.96 65.71 65.52 65.52 64.73 64.41 63.83 63.58 63.38 62.95 62.60 62.28 62.16 61.87 61.81 61.73 61.83 61.73 61.47
68.83 67.43 68.02 68.45 67.91 66.87 67.57 67.05 65.84 64.48 63.50 62.60 61.15 60.58 60.53 60.82 62.12 63.59 64.45 64.81 64.78 65.19 64.71 65.45 65.87 65.76 65.27 65.02 64.27 63.87 63.43 63.12 62.84 62.37 62.05 61.73 61.41 61.15 61.26 61.07 60.86 60.72 60.60
67.73 67.08 66.53 67.17 67.09 66.02 64.56 64.25 63.35 63.05 62.07 61.55 60.26 59.12 59.72 60.96 61.43 61.45 62.73 63.37 64.38 64.30 63.89 63.55 64.17 64.20 64.95 64.32 63.84 63.56 63.16 62.70 62.31 61.98 61.69 61.40 61.08 60.84 60.71 60.47 60.28 60.01 59.74
67.28 66.76 65.23 65.31 65.61 64.96 63.53 63.58 62.14 60.38 59.97 61.14 58.80 57.15 57.64 59.73 60.24 60.49 62.13 61.72 62.67 63.38 62.75 63.01 63.40 62.95 63.14 64.61 63.52 63.23 63.02 62.44 61.81 61.30 61.03 60.77 60.30 60.13 59.93 59.62 59.36 59.36 59.00
66.41 65.98 64.61 64.21 65.22 64.57 63.85 62.38 60.63 58.66 58.13 60.31 56.74 56.13 53.09 55.53 58.24 59.85 60.78 60.98 61.29 60.87 60.89 61.58 61.04 62.12 61.82 62.31 62.40 62.85 62.28 61.15 60.57 60.04 59.95 60.00 59.68 59.35 58.96 58.89 58.80 58.80 58.38
66.38 65.52 65.17 64.12 64.50 64.43 63.02 61.39 60.42 58.41 56.46 58.35 58.60 56.83 52.96 51.34 54.75 58.01 59.37 60.16 60.04 60.09 59.73 60.01 59.49 60.58 60.50 60.39 60.81 60.20 60.81 60.21 59.09 58.60 58.26 58.16 58.06 58.02 57.83 57.93 57.94 57.96 57.74
65.26 64.89 63.89 63.89 63.97 63.55 62.72 60.58 60.96 60.27 58.58 57.00 58.49 57.23 56.03 56.70 51.38 51.65 56.93 59.24 59.76 58.90 58.53 60.26 59.08 59.80 60.56 60.83 59.74 59.95 60.14 59.69 58.43 56.92 56.76 56.66 56.59 56.59 56.88 57.13 57.17 57.04 56.68
64.92 64.33 63.14 63.31 62.81 63.80 63.09 62.53 61.69 60.46 59.38 58.18 57.49 55.08 55.42 56.05 54.87 52.56 50.77 54.76 57.92 58.97 59.11 59.56 60.51 59.62 59.78 60.51 60.00 58.27 58.84 58.29 57.44 55.66 55.27 55.46 55.54 55.77 56.48 56.64 56.33 55.82 55.58
62.92 62.49 63.76 63.67 63.06 62.99 61.73 61.78 62.27 60.72 59.73 59.36 58.45 56.02 55.27 54.51 53.57 53.33 51.67 52.43 53.87 56.76 57.79 58.99 59.00 59.00 58.89 58.34 57.64 58.11 57.93 57.04 56.05 55.09 54.80 54.66 55.73 56.48 55.74 55.17 54.93 54.62 54.22
61.37 61.84 62.97 63.14 62.04 62.21 61.89 61.57 61.29 60.82 59.91 59.20 58.69 56.14 56.88 56.70 56.10 55.15 54.45 53.60 52.89 55.76 56.36 57.55 57.78 57.84 58.33 58.34 57.75 55.99 56.85 56.82 56.19 55.87 55.13 56.23 55.58 54.43 53.29 53.00 52.79 52.69 52.49
62.04 62.85 62.80 62.72 62.47 62.66 62.75 62.66 62.72 61.94 61.09 60.00 58.74 57.29 56.71 55.93 55.99 55.71 54.65 53.02 51.69 52.59 53.56 54.26 57.62 58.14 58.55 58.13 57.29 56.46 56.40 57.07 55.74 55.53 56.07 55.20 53.56 52.16 51.63 51.46 51.37 51.31 51.16
61.43 61.79 62.42 62.46 62.42 62.63 63.09 62.99 61.18 60.46 60.84 60.12 59.07 57.54 57.03 55.25 54.97 55.49 55.90 55.13 54.11 50.25 50.51 54.45 53.97 56.77 56.84 56.37 56.04 55.46 56.04 56.71 56.02 56.69 55.00 53.03 51.13 50.32 49.93 50.12 49.36 49.11 49.02
59.59 60.52 61.02 61.65 61.38 62.20 62.82 62.65 61.19 60.91 59.99 59.67 58.96 57.42 55.34 53.77 54.04 55.46 56.25 56.09 55.32 54.74 52.04 54.61 54.09 53.44 54.29 53.96 53.22 54.77 55.23 56.07 55.14 53.63 51.94 50.26 49.10 48.93 48.53 48.31 47.91 47.50 47.49
58.36 57.92 59.02 59.56 60.36 60.79 61.86 62.12 61.31 60.10 59.11 59.02 58.51 56.59 54.26 53.19 53.64 54.15 53.96 53.25 52.51 53.93 50.38 49.81 51.69 51.18 50.46 51.28 49.14 48.82 49.48 50.30 51.11 50.55 49.30 48.83 48.22 48.17 47.60 47.34 47.20 47.33 47.43
56.72 55.98 57.22 58.12 58.78 59.02 61.10 61.31 59.15 58.37 56.93 55.62 55.54 55.49 53.74 53.93 53.77 53.53 52.85 51.87 51.45 51.52 50.63 48.34 46.35 46.14 46.38 46.11 46.27 44.50 44.42 45.39 46.04 50.68 48.89 48.47 48.27 49.12 48.06 47.30 47.33 46.81 47.00
55.19 55.43 55.86 56.00 57.30 58.63 59.27 59.99 58.62 55.71 54.59 53.62 53.12 52.63 52.42 52.82 51.80 51.69 51.65 51.25 51.12 50.68 49.38 47.37 44.05 44.76 43.98 44.44 42.59 43.03 43.21 43.10 44.10 46.06 47.12 47.30 47.85 47.97 49.15 47.71 46.85 46.52 45.36
53.69 54.51 55.17 55.97 56.01 55.45 55.53 55.16 54.22 53.45 53.31 53.22 53.18 52.94 52.51 51.97 51.18 50.76 50.62 49.88 49.43 48.67 48.20 45.89 44.20 43.02 43.21 42.80 43.09 41.30 40.12 40.75 40.79 43.54 45.04 46.06 46.85 47.18 46.80 46.46 46.69 46.05 44.71
54.14 53.62 53.37 53.40 53.85 53.73 53.75 53.49 53.41 52.80 52.03 51.38 51.56 51.53 51.90 53.14 53.66 52.04 49.53 48.37 48.00 46.69 45.69 44.21 42.35 41.13 39.85 39.28 39.86 40.90 40.47 41.45 42.77 44.97 44.66 45.27 44.90 45.37 45.51 45.11 45.25 44.96 45.08
53.70 53.43 53.20 53.28 53.24 53.76 54.52 53.73 52.35 51.33 51.24 51.06 50.69 51.34 52.60 53.28 53.26 53.13 51.90 50.46 48.65 45.54 42.71 42.17 42.66 44.05 43.15 43.72 44.30 44.16 43.96 43.00 41.42 44.43 42.45 42.51 43.59 42.68 43.92 44.04 43.31 43.02 43.56
52.29 52.30 52.50 52.73 52.67 53.40 54.64 53.87 51.89 49.68 48.83 48.13 47.77 47.85 48.28 49.09 48.64 48.09 49.34 48.69 47.59 47.43 48.05 47.29 43.84 42.94 41.50 41.43 42.25 42.45 42.45 41.63 40.94 40.91 40.37 38.92 42.66 40.34 42.78 42.93 42.58 43.29 42.95
50.03 50.58 51.00 51.28 51.61 52.24 52.86 51.81 50.08 46.96 46.11 46.04 46.25 46.15 46.09 47.00 47.85 46.52 45.26 43.94 43.37 43.78 44.18 43.65 42.37 41.33 40.51 41.21 41.31 40.30 40.39 40.62 41.24 41.40 40.73 36.24 40.51 39.03 41.52 41.75 43.30 42.76 42.17
49.29 49.36 49.28 49.32 49.82 50.01 51.25 50.40 48.15 46.92 46.93 47.82 48.94 48.13 46.61 45.14 46.55 47.17 44.66 43.09 42.42 42.63 45.57 45.25 44.07 43.35 42.72 41.88 41.63 41.60 38.41 38.24 37.36 37.88 39.43 36.88 37.84 36.84 38.07 39.37 41.27 41.24 41.28
48.93 49.67 47.96 48.12 49.49 48.46 50.83 50.26 49.55 48.71 47.52 46.83 46.65 46.14 46.84 45.39 45.82 46.13 44.88 44.16 42.16 41.93 42.48 42.02 42.04 42.60 42.97 41.02 41.15 40.28 39.04 35.89 34.93 34.84 38.69 35.52 36.14 36.31 33.43 38.50 38.32 39.00 39.12

GFSMA_sfc_wetblb_168.txt.gz
Wetbulb
67.14 67.43 67.05 67.10 67.98 67.76 67.94 67.89 67.43 66.12 66.39 64.98 63.10 62.53 62.55 63.03 62.12 62.87 63.76 68.19 68.99 68.28 67.54 67.13 66.59 66.13 65.80 65.80 65.45 65.65 65.48 65.34 65.23 65.15 64.96 64.86 64.65 64.43 64.31 64.40 64.71 64.79 65.43
67.72 67.09 66.75 67.40 67.12 67.27 67.18 67.29 66.67 65.10 65.16 62.74 62.18 62.03 62.48 62.60 61.03 61.96 63.16 65.27 67.60 67.84 67.53 66.79 65.99 65.96 65.74 65.35 65.12 65.07 64.83 64.49 64.33 64.16 64.03 64.07 63.93 63.90 63.74 63.60 63.48 63.27 63.55
67.26 66.39 66.47 66.69 66.98 66.72 66.36 68.38 66.36 64.88 64.54 62.88 61.02 61.18 61.75 62.40 61.96 61.34 64.13 63.79 64.82 66.76 67.42 66.20 66.00 66.15 66.05 65.28 65.23 64.88 64.22 64.04 63.92 63.50 63.29 63.13 63.08 63.08 63.06 62.87 62.70 62.60 62.87
66.72 66.02 64.47 64.88 66.20 65.98 66.22 65.72 65.10 62.63 62.54 61.93 59.71 60.22 60.88 61.34 60.71 61.80 63.30 63.65 62.66 62.96 65.44 66.65 65.83 65.98 65.73 64.89 64.77 64.29 64.22 63.75 63.43 62.93 62.76 62.45 62.23 62.31 62.17 61.96 61.84 61.91 61.78
67.03 64.77 64.34 64.67 65.71 65.19 65.21 65.71 64.37 62.78 60.20 60.43 59.84 60.15 60.87 61.05 61.39 63.80 62.97 62.97 62.37 61.80 61.41 65.45 66.22 65.80 64.90 64.76 64.08 63.92 63.46 63.26 62.90 62.58 62.13 61.75 61.62 61.66 61.56 61.35 61.12 61.00 60.81
65.54 64.22 63.59 63.75 65.87 64.20 64.52 64.57 62.98 62.18 61.36 59.56 59.54 59.04 60.15 60.94 61.35 61.66 61.84 63.40 62.51 62.40 61.17 60.85 61.09 62.78 64.90 64.44 64.04 63.51 63.46 63.00 62.55 62.15 61.89 61.64 61.23 61.20 61.06 60.62 60.48 60.26 60.10
64.38 63.67 62.97 62.10 64.92 63.60 63.64 63.09 61.86 60.30 59.64 59.15 57.15 57.35 58.45 59.47 59.52 59.47 60.79 61.37 61.58 61.71 61.44 61.11 60.43 60.14 62.31 64.92 63.83 63.23 62.86 62.78 62.10 61.69 61.40 61.05 60.70 60.56 60.30 59.72 59.72 59.58 59.26
63.70 63.43 62.06 62.54 63.03 63.16 63.05 61.88 60.63 58.72 58.50 59.39 55.78 55.95 53.58 55.89 57.61 58.84 59.48 60.06 59.49 60.04 60.61 61.24 59.90 59.85 60.21 60.20 61.32 63.29 62.43 61.51 61.07 60.84 60.51 60.47 60.14 59.89 59.61 59.05 58.77 58.91 58.56
63.96 63.28 62.20 62.26 62.36 61.67 60.50 61.21 59.88 57.69 56.74 58.43 58.12 56.08 51.30 50.53 54.17 56.97 57.82 58.74 58.92 59.13 59.09 59.77 59.44 60.25 59.80 58.61 59.03 59.35 61.04 60.79 59.63 59.18 59.02 58.78 58.76 58.78 58.60 58.50 58.11 58.09 57.77
63.26 62.67 62.17 62.49 62.81 62.89 60.44 60.70 60.36 58.65 57.88 56.31 57.95 57.47 55.93 55.94 51.87 51.54 55.97 57.39 58.94 59.13 59.10 57.72 58.83 59.23 59.13 58.01 58.64 58.80 60.41 60.11 59.40 57.67 57.48 57.40 57.41 57.27 57.73 57.83 57.37 56.86 56.67
62.18 61.94 61.45 61.42 61.42 62.47 61.75 61.03 60.20 58.85 57.20 57.13 57.02 54.94 55.24 55.03 54.39 51.65 50.76 53.47 56.50 58.31 58.44 56.42 56.69 56.80 57.66 57.06 54.90 58.00 59.90 59.23 58.69 56.70 56.15 56.21 56.19 56.76 57.40 56.97 56.32 55.81 55.29
60.17 60.73 61.30 61.23 62.04 62.18 60.57 60.93 60.83 59.78 58.66 58.12 58.31 56.07 55.23 53.55 52.38 51.86 50.92 52.51 53.35 55.43 56.44 55.46 55.61 55.91 55.26 55.33 57.67 59.00 59.37 58.52 57.46 55.93 55.66 55.31 56.49 57.29 56.28 55.54 55.03 54.53 54.05
59.32 59.91 61.29 61.36 61.15 60.45 59.88 60.26 60.31 59.76 59.14 58.67 58.05 55.93 56.55 56.33 55.98 54.42 52.08 51.24 51.43 53.64 53.98 54.49 54.29 54.55 55.67 54.95 54.26 56.37 58.38 58.09 57.15 55.97 55.58 56.46 56.45 55.21 54.14 53.70 53.18 53.00 53.20
59.63 61.28 61.17 61.31 59.77 59.72 59.90 60.14 60.56 60.29 59.88 59.20 58.37 56.82 56.72 56.11 56.04 55.59 54.57 52.27 49.69 50.19 51.32 51.76 53.95 54.45 54.92 54.53 56.10 57.10 53.90 58.41 57.00 56.67 56.06 56.09 54.61 53.30 52.57 52.20 51.73 51.42 50.61
60.22 60.90 61.38 61.13 60.96 60.56 60.15 60.23 59.39 58.99 59.68 59.45 58.83 57.49 56.88 55.73 55.95 55.98 55.58 55.26 52.62 48.51 48.44 50.73 50.99 53.67 53.19 52.08 54.12 52.32 52.93 57.83 56.34 56.72 56.48 54.40 52.63 51.78 50.99 50.91 49.77 49.27 49.01
57.76 58.72 59.42 60.32 60.96 60.96 60.77 59.72 58.83 59.81 59.82 59.69 58.85 57.12 56.58 54.93 54.84 55.22 55.59 55.59 55.11 52.80 49.42 51.40 49.05 50.25 51.31 51.64 52.51 51.04 54.30 56.63 56.96 55.84 53.78 51.89 50.30 49.79 49.73 49.19 48.46 47.80 47.78
57.21 56.82 57.66 58.45 59.77 59.86 60.41 59.72 60.01 59.44 59.09 58.63 58.11 56.89 54.84 54.22 54.46 55.19 55.01 53.73 52.12 52.13 48.31 47.54 47.61 47.02 46.88 46.73 45.77 45.16 47.92 48.51 50.47 51.87 50.35 48.96 48.36 48.87 48.54 48.21 47.62 47.50 47.71
56.14 54.46 56.10 56.98 58.16 58.82 59.10 59.93 59.31 59.18 58.44 57.40 57.38 56.32 53.72 54.12 53.94 54.09 53.04 51.70 51.32 51.21 50.53 47.02 45.50 44.99 44.83 44.70 43.74 43.01 44.50 46.15 46.83 51.19 50.09 49.30 49.12 49.15 48.73 47.90 47.60 46.91 47.28
54.01 54.00 55.48 55.51 56.64 57.54 58.44 59.27 58.08 56.72 55.78 54.89 54.99 54.79 53.54 53.79 52.82 52.69 52.16 51.10 50.56 50.40 48.94 47.41 43.65 44.54 43.93 44.35 43.09 43.46 43.87 43.60 45.48 46.78 48.28 48.44 48.25 48.27 48.69 48.34 47.32 46.58 46.12
53.69 53.95 54.71 55.82 56.16 56.26 55.80 55.06 54.19 53.45 53.25 53.17 53.02 52.76 52.81 52.95 52.26 51.62 50.85 49.93 49.35 48.35 47.50 45.50 43.92 43.00 43.18 43.01 43.13 41.95 41.20 41.74 41.47 43.43 45.81 46.63 47.46 47.41 47.41 47.17 46.73 47.02 45.35
53.45 53.68 53.49 53.70 53.88 54.06 54.18 53.60 53.26 52.50 51.60 51.24 51.83 52.06 52.20 53.45 54.31 52.65 49.93 48.75 48.04 46.65 45.62 44.14 42.40 41.47 40.18 40.07 40.45 40.67 40.16 39.48 39.18 40.51 40.33 41.18 40.58 42.34 43.20 45.86 45.47 45.55 45.66
53.24 53.24 53.25 53.31 53.15 54.00 54.71 53.67 52.28 51.50 51.37 50.72 49.69 50.73 52.59 54.02 54.16 54.05 52.99 51.32 48.86 45.30 43.39 42.03 41.11 39.65 37.91 38.08 38.59 38.31 37.91 38.58 38.61 39.14 36.62 36.75 38.27 37.62 38.44 40.26 44.74 43.61 43.61
51.96 51.89 52.49 52.84 52.83 53.47 54.61 53.84 52.12 49.77 48.85 48.49 48.27 48.10 48.03 48.45 48.26 47.21 48.60 47.70 47.47 48.76 46.48 39.00 35.78 34.69 33.89 34.86 35.18 35.12 34.93 35.08 34.79 35.56 35.24 33.48 36.23 35.25 37.71 42.78 43.42 43.29 43.29
50.29 50.58 50.96 51.30 51.49 52.52 53.38 52.32 50.67 47.72 47.10 47.08 47.05 46.68 45.58 45.10 44.51 41.71 40.31 40.28 40.72 39.87 39.10 39.32 35.67 34.26 34.58 35.42 35.14 35.23 34.43 34.41 35.13 35.81 34.85 30.87 35.76 35.92 35.98 37.56 43.30 42.59 42.02
48.74 49.01 49.69 49.63 49.82 50.64 52.02 51.03 48.55 46.62 45.72 45.14 43.97 42.67 41.75 40.97 47.36 46.15 40.24 39.27 38.78 40.02 44.98 45.21 44.33 44.16 43.57 43.11 40.94 35.27 32.81 31.92 30.67 32.52 34.44 31.34 32.21 32.09 32.39 33.34 39.46 41.24 41.00
47.80 48.28 47.99 48.69 49.84 48.35 51.11 51.21 48.72 45.87 42.82 42.49 42.48 42.69 46.65 43.77 47.36 46.96 39.65 38.26 36.10 36.40 38.03 38.25 38.40 40.46 40.06 39.86 42.10 34.97 33.79 30.72 29.87 28.94 33.65 30.89 32.95 34.06 28.67 32.45 36.15 36.76 36.28

GFSMA_sfc_wetblb_171.txt.gz
Wetbulb
66.52 66.71 66.55 67.10 67.01 67.39 67.18 66.73 66.60 66.01 64.66 65.06 62.22 63.49 63.25 60.93 61.07 62.41 64.01 68.70 68.87 67.87 67.58 66.94 65.91 66.40 65.42 65.80 65.71 65.62 65.29 65.16 65.29 65.05 64.94 64.99 64.79 64.54 64.24 64.36 64.52 64.93 65.56
66.86 66.37 66.06 66.05 66.36 66.60 66.07 66.68 65.64 65.17 63.66 62.44 61.42 62.96 62.54 61.25 60.99 62.01 63.84 65.59 68.01 67.96 67.36 66.68 66.40 66.21 66.22 65.54 64.91 65.06 64.61 64.47 64.48 64.29 63.97 64.21 64.16 63.86 63.38 63.47 63.77 63.76 63.81
66.09 65.57 64.91 64.96 65.88 66.24 66.29 66.21 65.39 63.97 62.73 61.64 60.56 60.97 61.44 59.63 60.65 62.31 63.91 63.50 65.17 66.98 67.12 66.72 66.71 66.28 66.11 65.21 64.92 64.32 64.04 64.00 63.71 63.54 63.60 63.46 63.31 63.22 62.96 62.70 62.78 62.47 62.48
65.33 64.46 63.52 63.64 65.16 65.25 64.82 64.88 63.47 61.31 60.26 60.10 60.18 60.66 60.62 60.39 60.60 62.58 62.95 62.48 62.25 62.93 65.87 66.75 66.47 65.89 65.79 65.50 64.90 64.18 63.51 63.43 63.22 62.91 62.75 62.69 62.58 62.40 62.29 62.07 61.86 61.57 61.83
65.99 63.85 63.55 64.21 64.48 64.36 64.16 63.91 61.12 59.80 58.47 59.07 59.96 60.56 60.99 60.99 62.05 62.82 61.60 62.38 62.91 62.34 62.50 65.49 66.05 65.65 65.04 64.64 64.26 63.70 63.56 63.14 62.94 62.67 62.51 62.20 61.92 61.76 61.58 61.46 61.46 61.19 60.94
65.55 63.32 62.87 63.70 63.38 62.91 61.92 61.89 62.48 61.74 59.40 58.80 59.03 59.06 59.91 60.73 60.78 60.66 61.92 62.95 62.31 61.93 61.88 61.14 61.74 63.19 64.81 64.39 63.62 63.37 63.04 63.02 62.61 62.32 61.92 61.60 61.62 61.39 61.08 60.68 60.58 60.54 60.33
63.83 62.96 62.10 61.98 63.17 61.79 60.86 62.95 61.60 59.99 58.72 59.17 57.90 57.63 58.38 59.34 59.66 60.58 61.13 61.92 61.42 61.82 60.99 60.86 60.95 60.82 62.56 64.62 63.68 62.97 62.99 62.93 62.23 61.75 61.46 61.25 61.01 60.72 60.29 60.10 59.79 59.64 59.52
62.88 63.86 61.47 60.79 61.47 61.01 60.70 61.77 60.84 58.67 59.01 59.01 56.53 55.88 53.99 56.23 57.85 59.16 59.58 60.68 60.09 60.76 60.96 60.61 60.08 60.09 60.19 60.04 61.68 63.29 62.48 61.78 61.55 61.19 60.90 60.74 60.52 60.19 59.75 59.22 59.21 58.96 58.74
62.71 62.35 61.05 60.55 60.57 60.14 60.34 61.13 60.21 58.57 57.58 58.52 58.36 54.98 51.44 51.30 54.69 56.85 58.02 58.78 58.46 59.06 59.43 59.86 60.07 58.80 58.13 58.18 60.07 60.07 61.35 61.07 59.83 59.65 59.28 59.40 59.53 59.42 59.07 58.57 58.43 58.13 57.97
62.47 62.01 61.41 61.04 61.71 61.96 60.31 60.85 60.43 58.83 58.59 57.03 57.27 57.35 54.19 55.54 52.19 51.20 55.96 57.40 58.64 58.59 58.75 58.87 59.04 59.05 57.64 57.52 58.57 58.94 60.89 60.46 59.67 57.95 57.88 57.79 57.98 58.39 58.44 58.04 57.56 57.14 56.70
63.13 61.50 60.74 60.10 61.28 62.21 61.53 60.04 59.78 58.72 58.56 57.68 57.04 55.28 55.47 53.86 53.23 52.84 50.53 53.37 56.35 57.90 58.54 58.35 57.38 58.67 57.51 56.62 55.22 57.87 60.50 59.70 59.16 57.17 56.43 56.46 56.53 57.74 57.88 57.29 56.64 55.98 55.41
59.93 59.88 60.50 59.39 59.73 61.95 61.42 61.11 60.34 59.25 58.00 56.94 57.20 55.01 54.01 52.72 52.61 51.81 51.21 52.42 52.98 55.25 57.48 56.65 56.00 56.59 56.46 55.43 57.33 59.25 60.07 59.39 58.49 57.05 56.14 55.61 56.66 57.80 56.61 55.98 55.50 54.77 54.26
56.88 59.56 58.95 58.90 59.80 61.57 60.99 59.45 60.23 59.95 57.62 57.39 57.88 56.30 56.41 55.67 55.28 53.82 52.83 52.18 52.42 54.17 55.33 55.73 56.07 55.65 55.19 54.37 55.89 58.21 59.18 59.01 58.01 56.61 56.08 55.98 57.37 56.02 54.91 54.38 53.81 53.63 53.53
56.93 59.69 60.09 60.13 61.08 59.29 58.47 58.34 58.63 59.11 59.00 58.68 58.28 56.47 56.36 56.31 55.89 55.15 53.58 51.59 50.02 51.08 52.12 52.84 54.95 54.12 53.76 53.41 53.82 57.90 55.33 58.86 58.07 57.43 56.28 57.29 55.71 54.21 53.60 53.21 52.59 51.43 51.18
60.42 60.73 60.65 60.80 60.51 59.83 58.46 58.25 57.89 57.98 57.80 57.12 57.15 56.19 56.90 56.15 56.20 56.02 55.73 54.90 51.92 48.41 49.06 50.97 51.31 53.32 52.88 52.41 55.35 52.33 52.06 57.85 57.44 57.50 57.63 55.90 54.11 52.94 51.98 51.74 50.65 49.82 49.65
57.74 58.65 59.51 59.95 60.68 60.64 60.34 58.70 57.84 57.96 57.47 58.03 58.12 57.12 56.61 55.78 55.74 55.82 55.81 55.55 54.74 52.52 49.24 49.08 48.36 49.54 50.32 50.62 52.18 51.54 53.49 56.95 57.28 56.33 55.36 53.41 51.53 50.39 50.01 49.82 49.01 48.21 48.03
56.59 56.88 57.23 58.31 59.46 59.60 60.37 59.70 58.35 59.02 58.90 58.65 58.13 56.98 55.93 55.73 55.07 55.27 55.83 54.47 52.91 52.30 47.30 46.20 47.07 47.31 45.98 46.38 45.56 45.93 47.57 48.70 51.82 53.27 51.22 50.31 49.64 49.28 48.71 48.49 47.85 47.65 47.91
55.56 55.38 56.02 56.58 57.84 59.35 59.66 59.52 57.59 58.30 58.21 57.71 57.07 56.52 55.05 54.92 54.61 55.23 54.03 52.18 51.53 51.81 50.69 46.25 45.75 45.00 44.91 44.56 44.35 44.29 45.89 47.01 48.42 51.93 51.05 50.13 49.27 49.35 49.20 48.39 47.80 47.37 47.22
53.99 53.90 54.74 54.68 56.60 57.57 57.61 58.62 58.03 57.49 56.46 55.89 55.85 55.49 53.80 53.82 52.85 53.11 52.40 51.32 50.58 50.21 49.38 47.65 43.80 44.65 44.02 44.58 43.84 44.11 44.52 44.34 46.54 47.46 48.62 48.90 48.47 48.04 48.51 48.89 47.95 47.01 46.96
53.78 54.14 55.04 55.58 55.98 56.65 56.36 55.73 54.51 53.68 53.19 52.92 52.99 53.34 53.74 53.19 52.52 52.13 51.16 50.04 49.59 48.48 47.35 45.40 43.82 42.99 43.23 43.28 43.50 42.64 42.12 42.75 42.83 44.26 46.63 46.95 47.90 47.61 47.80 48.20 46.75 47.16 46.03
53.62 53.86 53.82 54.00 54.40 54.63 54.69 53.74 52.96 52.06 51.77 51.63 52.02 52.18 52.58 53.93 54.85 53.10 50.28 49.03 48.36 46.75 45.83 44.30 42.78 41.92 40.80 40.97 41.01 41.00 39.46 38.15 37.34 38.11 38.05 38.65 38.98 40.55 41.70 45.25 45.12 46.10 45.60
53.12 53.46 53.26 53.53 53.43 54.01 54.71 53.79 52.68 51.67 51.18 49.99 49.26 50.07 53.39 54.64 54.52 54.25 53.06 51.90 49.46 46.24 44.20 41.99 41.11 38.39 34.57 35.49 35.48 35.92 35.80 35.74 34.37 36.24 35.09 35.19 36.80 36.23 36.91 38.88 44.82 44.83 43.84
52.31 52.38 52.79 53.04 52.85 53.31 54.59 53.77 52.06 49.72 49.01 48.52 47.98 47.69 47.81 48.04 46.26 45.37 47.87 48.09 48.08 48.09 44.01 36.59 33.23 32.49 32.01 32.91 33.30 33.04 32.88 33.33 32.66 34.43 33.68 31.94 34.32 33.58 36.27 41.48 43.64 43.32 43.05
50.73 50.84 51.28 52.00 52.31 52.84 53.52 52.60 51.13 48.05 46.80 45.64 45.42 45.38 43.22 40.91 41.75 40.75 39.90 38.78 37.16 36.47 36.93 37.47 34.16 33.41 33.84 33.58 34.03 34.03 32.69 32.80 33.52 33.91 32.72 29.49 31.83 31.41 36.17 36.55 43.57 42.96 42.19
49.38 49.47 50.25 50.60 50.72 51.03 52.02 50.19 47.37 44.30 42.97 43.14 43.27 42.07 41.02 40.96 46.15 44.98 39.45 38.47 37.79 38.65 44.91 45.38 44.37 44.44 44.23 43.29 39.54 34.65 31.24 30.15 29.39 30.51 32.52 29.68 30.42 30.27 30.36 33.71 37.00 41.04 41.06
48.22 48.81 48.52 49.12 50.13 48.55 50.79 48.74 45.82 42.84 40.79 40.88 40.93 42.26 47.82 43.42 46.91 44.96 38.05 36.90 35.86 36.14 37.29 37.19 37.20 38.41 37.94 38.90 40.60 33.24 31.89 29.71 28.29 27.58 32.39 29.90 30.24 33.46 28.73 30.21 32.81 33.64 32.64